20041106,000014,286780,30.180565,-122.923603,3.8,19.467,33.236,45.240,1597.34,0.0,0.294, NaN, NaN, NaN,23.554,   NaN,17.47,1013.64,62.20,17.20,6.2,0.0,6.8,7.2,282.9,276.6,6.8,7.1,NaN, NaN,22.8,219.9,238.6,NaN,1099699210,1,0.9,000014,000015,274.9,30.180468,-122.923681,NaN,NaN,NaN,19.472, NaN,NaN,NaN, NaN, NaN
20041106,000043,286808,30.180557,-122.923625,3.8,19.466,33.236,45.240,1629.35,0.0,0.309, NaN, NaN, NaN,23.555,   NaN,17.55,1013.56,62.86,17.32,1.7,359.6,6.6,6.9,277.8,275.4,6.6,6.9,NaN, NaN,22.5,0.9,251.1,NaN,1099699240,1,0.8,000044,000040,275.3,30.180458,-122.923693,NaN,NaN,NaN,19.471, NaN,NaN,NaN, NaN, NaN
20041106,000113,286838,30.180527,-122.923655,3.8,19.467,33.235,45.240,1622.91,0.0,0.317, NaN, NaN, NaN,23.554,   NaN,17.66,1013.61,63.59,17.44,2.0,0.0,6.6,7.0,277.9,275.6,6.5,6.9,NaN, NaN,20.7,214.2,245.2,NaN,1099699270,1,0.4,000073,000070,273.3,30.180442,-122.923711,NaN,NaN,NaN,19.472, NaN,NaN,NaN, NaN, NaN
20041106,000144,286869,30.180507,-122.923676,3.7,19.467,33.235,45.240,1601.99,0.0,0.311, NaN, NaN, NaN,23.554,   NaN,17.71,1013.63,63.57,17.48,4.2,1.1,6.8,7.2,279.6,276.3,6.8,7.1,NaN, NaN,22.8,195.0,260.0,NaN,1099699300,1,0.5,000104,000105,273.1,30.180427,-122.923731,NaN,NaN,NaN,19.472, NaN,NaN,NaN, NaN, NaN
20041106,000214,286899,30.180513,-122.923661,3.8,19.467,33.235,45.239,1598.07,0.0,0.303, NaN, NaN, NaN,23.554,   NaN,17.79,1013.53,63.66,17.51,11.9,6.7,6.7,7.2,286.7,281.5,6.7,7.2,NaN, NaN,20.6,21.4,253.5,NaN,1099699335,1,0.9,000134,000135,273.3,30.180432,-122.923725,NaN,NaN,NaN,19.472, NaN,NaN,NaN, NaN, NaN
20041106,000244,286929,30.180463,-122.923676,3.8,19.467,33.235,45.239,1563.06,0.0,0.305, NaN, NaN, NaN,23.554,   NaN,17.80,1013.54,64.41,17.57,15.4,10.1,6.3,6.6,289.6,284.2,6.3,6.6,NaN, NaN,22.9,199.3,227.1,NaN,1099699360,1,0.5,000164,000160,272.4,30.180398,-122.923730,NaN,NaN,NaN,19.472, NaN,NaN,NaN, NaN, NaN
20041106,000314,286960,30.180450,-122.923661,3.8,19.467,33.235,45.239,1574.84,0.0,0.308, NaN, NaN, NaN,23.554,   NaN,17.82,1013.51,64.90,17.54,15.2,9.4,6.1,6.5,288.5,282.8,6.1,6.5,NaN, NaN,21.3,349.7,120.0,NaN,1099699395,1,0.8,000194,000195,273.2,30.180372,-122.923718,NaN,NaN,NaN,19.472, NaN,NaN,NaN, NaN, NaN
20041106,000344,286989,30.180418,-122.923656,3.8,19.465,33.236,45.238,1531.25,0.0,0.296, NaN, NaN, NaN,23.555,   NaN,17.79,1013.56,61.74,17.59,17.7,11.9,6.5,6.9,291.2,285.3,6.4,6.9,NaN, NaN,23.1,0.4,114.0,NaN,1099699420,1,1.0,000224,000225,275.5,30.180362,-122.923706,NaN,NaN,NaN,19.470, NaN,NaN,NaN, NaN, NaN
20041106,000413,287018,30.180432,-122.923658,3.8,19.463,33.236,45.236,1512.37,0.0,0.317, NaN, NaN, NaN,23.555,   NaN,17.77,1013.58,62.38,17.57,17.6,11.8,6.6,7.1,292.3,286.5,6.5,7.0,NaN, NaN,22.1,356.0,98.5,NaN,1099699450,1,0.6,000253,000250,280.0,30.180370,-122.923730,NaN,NaN,NaN,19.468, NaN,NaN,NaN, NaN, NaN
20041106,000444,287049,30.180428,-122.923671,3.8,19.461,33.236,45.234,1509.78,0.0,0.302, NaN, NaN, NaN,23.556,   NaN,17.69,1013.53,59.62,17.57,13.1,6.6,6.4,6.8,289.6,283.3,6.3,6.7,NaN, NaN,22.7,233.0,80.0,NaN,1099699480,1,0.8,000284,000285,281.4,30.180332,-122.923755,NaN,NaN,NaN,19.466, NaN,NaN,NaN, NaN, NaN
20041106,000513,287078,30.180470,-122.923651,3.8,19.463,33.236,45.236,1468.52,0.0,0.281, NaN, NaN, NaN,23.556,   NaN,17.70,1013.55,60.22,17.57,6.6,3.1,6.6,7.0,285.6,282.6,6.5,7.0,NaN, NaN,21.9,235.5,280.5,NaN,1099699510,1,0.3,000314,000310,282.4,30.180360,-122.923745,NaN,NaN,NaN,19.468, NaN,NaN,NaN, NaN, NaN
20041106,000544,287110,30.180478,-122.923630,3.8,19.464,33.236,45.237,1464.85,0.0,0.292, NaN, NaN, NaN,23.555,   NaN,17.64,1013.58,59.85,17.57,6.4,3.1,7.0,7.4,287.9,284.9,7.0,7.4,NaN, NaN,23.1,137.2,55.6,NaN,1099699540,1,0.5,000344,000345,279.5,30.180383,-122.923730,NaN,NaN,NaN,19.469, NaN,NaN,NaN, NaN, NaN
20041106,000613,287138,30.180508,-122.923610,3.8,19.466,33.236,45.240,1471.99,0.0,0.292, NaN, NaN, NaN,23.555,   NaN,17.60,1013.63,60.83,17.65,4.5,1.9,7.1,7.5,285.4,283.1,7.2,7.6,NaN, NaN,22.7,33.4,87.9,NaN,1099699570,1,0.6,000374,000370,280.9,30.180410,-122.923713,NaN,NaN,NaN,19.471, NaN,NaN,NaN, NaN, NaN
20041106,000644,287169,30.180535,-122.923585,3.8,19.467,33.234,45.238,1491.52,0.0,0.287, NaN, NaN, NaN,23.553,   NaN,17.69,1013.64,62.11,17.65,1.8,357.8,6.9,7.3,281.5,277.5,7.0,7.4,NaN, NaN,22.1,15.3,95.4,NaN,1099699600,1,1.1,000404,000405,279.1,30.180420,-122.923698,NaN,NaN,NaN,19.472, NaN,NaN,NaN, NaN, NaN
20041106,000713,287199,30.180532,-122.923608,3.7,19.467,33.236,45.241,1465.25,0.0,0.299, NaN, NaN, NaN,23.555,   NaN,17.66,1013.58,60.22,17.65,359.9,356.5,6.9,7.3,279.1,275.7,6.9,7.3,NaN, NaN,20.8,328.9,103.8,NaN,1099699630,1,0.7,000433,000430,280.7,30.180417,-122.923698,NaN,NaN,NaN,19.472, NaN,NaN,NaN, NaN, NaN
20041106,000744,287229,30.180533,-122.923618,3.8,19.468,33.236,45.242,1457.88,0.0,0.305, NaN, NaN, NaN,23.555,   NaN,17.63,1013.60,60.16,17.59,359.8,357.6,6.9,7.3,279.7,277.5,6.8,7.2,NaN, NaN,21.9,340.0,277.0,NaN,1099699665,1,0.7,000464,000465,281.5,30.180445,-122.923705,NaN,NaN,NaN,19.473, NaN,NaN,NaN, NaN, NaN
20041106,000813,287258,30.180547,-122.923625,3.8,19.470,33.236,45.243,1430.97,0.0,0.284, NaN, NaN, NaN,23.554,   NaN,17.61,1013.60,60.41,17.65,359.6,356.5,6.9,7.4,280.6,277.3,6.9,7.3,NaN, NaN,23.0,35.0,296.4,NaN,1099699690,1,0.5,000493,000490,283.4,30.180443,-122.923730,NaN,NaN,NaN,19.475, NaN,NaN,NaN, NaN, NaN
20041106,000844,287290,30.180552,-122.923611,3.8,19.470,33.237,45.244,1426.52,0.0,0.293, NaN, NaN, NaN,23.554,   NaN,17.60,1013.62,60.55,17.65,355.7,352.7,6.8,7.3,276.9,273.9,6.8,7.3,NaN, NaN,23.0,15.2,300.5,NaN,1099699720,1,0.5,000524,000525,283.4,30.180465,-122.923711,NaN,NaN,NaN,19.475, NaN,NaN,NaN, NaN, NaN
20041106,000914,287320,30.180585,-122.923596,3.8,19.470,33.237,45.244,1407.41,0.0,0.288, NaN, NaN, NaN,23.554,   NaN,17.66,1013.61,59.19,17.57,351.1,350.1,6.5,6.9,272.8,272.0,6.6,7.0,NaN, NaN,22.0,25.5,342.3,NaN,1099699755,1,0.3,000554,000555,285.2,30.180495,-122.923716,NaN,NaN,NaN,19.475, NaN,NaN,NaN, NaN, NaN
20041106,000944,287349,30.180598,-122.923591,3.8,19.467,33.237,45.242,1413.42,0.0,0.284, NaN, NaN, NaN,23.556,   NaN,17.68,1013.57,59.15,17.59,352.4,351.3,6.2,6.6,274.9,273.8,6.3,6.7,NaN, NaN,22.4,353.5,47.1,NaN,1099699780,1,0.4,000584,000585,285.3,30.180518,-122.923705,NaN,NaN,NaN,19.472, NaN,NaN,NaN, NaN, NaN
20041106,001013,287379,30.180587,-122.923583,3.8,19.466,33.237,45.241,1394.63,0.0,0.299, NaN, NaN, NaN,23.556,   NaN,17.79,1013.58,59.91,17.72,351.1,349.8,5.8,6.3,275.1,273.8,5.9,6.3,NaN, NaN,23.4,186.4,110.7,NaN,1099699810,1,0.6,000613,000610,284.4,30.180520,-122.923686,NaN,NaN,NaN,19.471, NaN,NaN,NaN, NaN, NaN
20041106,001044,287409,30.180592,-122.923576,3.8,19.467,33.237,45.242,1386.78,0.0,0.300, NaN, NaN, NaN,23.556,   NaN,17.80,1013.58,60.76,17.72,350.1,348.8,5.7,6.1,275.4,274.0,5.8,6.2,NaN, NaN,22.7,192.0,116.0,NaN,1099699840,1,0.3,000644,000645,286.4,30.180512,-122.923690,NaN,NaN,NaN,19.472, NaN,NaN,NaN, NaN, NaN
20041106,001114,287439,30.180577,-122.923568,3.8,19.468,33.237,45.243,1369.01,0.0,0.296, NaN, NaN, NaN,23.555,   NaN,17.80,1013.54,60.94,17.75,349.9,348.6,5.5,5.8,276.6,275.2,5.5,5.9,NaN, NaN,22.7,216.5,148.0,NaN,1099699870,1,0.8,000674,000675,285.0,30.180488,-122.923683,NaN,NaN,NaN,19.473, NaN,NaN,NaN, NaN, NaN
20041106,001144,287470,30.180545,-122.923588,3.7,19.470,33.237,45.245,1383.09,0.0,0.288, NaN, NaN, NaN,23.555,   NaN,17.81,1013.62,59.95,17.72,350.4,348.9,5.8,6.2,277.5,275.8,5.7,6.1,NaN, NaN,22.3,175.9,83.4,NaN,1099699900,1,0.6,000704,000700,282.1,30.180470,-122.923690,NaN,NaN,NaN,19.475, NaN,NaN,NaN, NaN, NaN
20041106,001214,287499,30.180545,-122.923621,3.7,19.470,33.237,45.245,1354.96,0.0,0.308, NaN, NaN, NaN,23.554,   NaN,17.80,1013.52,60.37,17.75,352.0,350.7,6.1,6.6,274.7,273.2,6.0,6.5,NaN, NaN,22.0,356.4,255.6,NaN,1099699935,1,0.5,000734,000735,279.3,30.180463,-122.923708,NaN,NaN,NaN,19.475, NaN,NaN,NaN, NaN, NaN
20041106,001245,287531,30.180547,-122.923641,3.8,19.472,33.236,45.246,1322.82,0.0,0.302, NaN, NaN, NaN,23.554,   NaN,17.83,1013.51,61.24,17.75,357.7,356.6,6.0,6.4,276.5,275.5,6.0,6.3,NaN, NaN,21.7,217.3,258.3,NaN,1099699965,1,0.5,000765,000765,277.4,30.180465,-122.923716,NaN,NaN,NaN,19.477, NaN,NaN,NaN, NaN, NaN
20041106,001315,287561,30.180517,-122.923660,3.8,19.472,33.237,45.247,1339.36,0.0,0.292, NaN, NaN, NaN,23.554,   NaN,17.80,1013.55,59.80,17.75,8.5,4.9,6.2,6.4,287.0,283.4,6.1,6.3,NaN, NaN,23.0,216.2,258.5,NaN,1099699995,1,0.5,000795,000795,278.6,30.180428,-122.923735,NaN,NaN,NaN,19.477, NaN,NaN,NaN, NaN, NaN
20041106,001345,287590,30.180497,-122.923640,3.8,19.471,33.237,45.245,1327.01,0.0,0.307, NaN, NaN, NaN,23.554,   NaN,17.78,1013.43,60.76,17.72,14.3,8.7,6.4,6.7,294.8,289.1,6.4,6.7,NaN, NaN,22.2,26.4,290.6,NaN,1099700025,1,0.9,000824,000825,285.7,30.180407,-122.923741,NaN,NaN,NaN,19.476, NaN,NaN,NaN, NaN, NaN
20041106,001415,287620,30.180487,-122.923641,3.8,19.470,33.237,45.244,1322.15,0.0,0.306, NaN, NaN, NaN,23.555,   NaN,17.80,1013.51,61.40,17.75,5.6,1.6,6.5,6.9,291.0,286.9,6.5,6.9,NaN, NaN,22.3,17.9,271.2,NaN,1099700055,1,0.6,000855,000855,285.2,30.180403,-122.923735,NaN,NaN,NaN,19.475, NaN,NaN,NaN, NaN, NaN
20041106,001445,287650,30.180505,-122.923621,3.8,19.469,33.230,45.235,1328.53,0.0,0.286, NaN, NaN, NaN,23.550,   NaN,17.78,1013.59,59.78,17.68,359.2,356.5,6.6,7.0,284.5,281.8,6.6,7.0,NaN, NaN,21.4,30.6,270.3,NaN,1099700085,1,0.8,000885,000885,282.6,30.180410,-122.923720,NaN,NaN,NaN,19.474, NaN,NaN,NaN, NaN, NaN
20041106,001515,287680,30.180505,-122.923613,3.8,19.468,33.237,45.242,1306.31,0.0,0.298, NaN, NaN, NaN,23.555,   NaN,17.71,1013.56,59.82,17.59,3.1,358.2,6.8,7.3,284.4,279.5,6.8,7.3,NaN, NaN,21.2,5.0,261.4,NaN,1099700115,1,0.8,000915,000915,280.1,30.180415,-122.923701,NaN,NaN,NaN,19.473, NaN,NaN,NaN, NaN, NaN
20041106,001545,287711,30.180495,-122.923593,3.8,19.467,33.237,45.242,1277.15,0.0,0.303, NaN, NaN, NaN,23.555,   NaN,17.71,1013.51,60.58,17.68,6.2,1.2,7.0,7.4,286.8,281.8,6.9,7.4,NaN, NaN,23.0,183.8,91.2,NaN,1099700145,1,0.4,000945,000945,278.8,30.180412,-122.923658,NaN,NaN,NaN,19.472, NaN,NaN,NaN, NaN, NaN
20041106,001615,287741,30.180477,-122.923593,3.8,19.468,33.237,45.242,1293.86,0.0,0.297, NaN, NaN, NaN,23.555,   NaN,17.67,1013.55,58.84,17.54,5.9,2.8,7.0,7.4,285.2,282.1,6.9,7.3,NaN, NaN,23.1,213.7,114.9,NaN,1099700175,1,0.4,000975,000975,276.2,30.180397,-122.923651,NaN,NaN,NaN,19.473, NaN,NaN,NaN, NaN, NaN
20041106,001645,287770,30.180483,-122.923663,3.8,19.466,33.237,45.241,1255.07,0.0,0.346, NaN, NaN, NaN,23.555,   NaN,17.66,1013.52,59.94,17.59,9.1,4.7,6.7,7.0,286.4,281.9,6.6,6.9,NaN, NaN,21.6,224.5,264.9,NaN,1099700205,1,0.8,001005,001005,273.0,30.180398,-122.923723,NaN,NaN,NaN,19.471, NaN,NaN,NaN, NaN, NaN
20041106,001715,287800,30.180443,-122.923811,3.8,19.464,33.237,45.239,1267.26,0.0,0.311, NaN, NaN, NaN,23.556,   NaN,17.69,1013.56,60.30,17.59,7.1,2.4,6.7,7.0,282.0,277.0,6.3,6.6,NaN, NaN,21.9,254.2,257.8,NaN,1099700235,1,1.2,001035,001035,268.9,30.180365,-122.923885,NaN,NaN,NaN,19.469, NaN,NaN,NaN, NaN, NaN
20041106,001745,287830,30.180410,-122.923991,3.8,19.466,33.237,45.240,1257.40,0.0,0.298, NaN, NaN, NaN,23.555,   NaN,17.66,1013.52,60.52,17.57,4.2,359.8,7.0,7.3,275.9,271.1,6.5,6.8,NaN, NaN,22.1,273.7,258.5,NaN,1099700265,1,1.3,001065,001065,270.1,30.180338,-122.924068,NaN,NaN,NaN,19.471, NaN,NaN,NaN, NaN, NaN
20041106,001815,287860,30.180380,-122.924241,3.8,19.467,33.237,45.241,1240.97,0.0,0.293, NaN, NaN, NaN,23.555,   NaN,17.66,1013.57,60.23,17.51,2.9,359.3,7.3,7.7,274.5,270.4,6.6,7.0,NaN, NaN,23.0,254.5,263.8,NaN,1099700295,1,1.7,001095,001095,270.6,30.180308,-122.924303,NaN,NaN,NaN,19.472, NaN,NaN,NaN, NaN, NaN
20041106,001845,287891,30.180323,-122.924551,3.8,19.470,33.236,45.244,1240.03,0.0,0.308, NaN, NaN, NaN,23.554,   NaN,17.62,1013.51,58.96,17.41,0.9,359.3,7.3,7.7,273.6,271.4,6.4,6.8,NaN, NaN,24.0,271.6,257.1,NaN,1099700325,1,2.1,001125,001125,271.2,30.180260,-122.924608,NaN,NaN,NaN,19.475, NaN,NaN,NaN, NaN, NaN
20041106,001914,287919,30.180315,-122.924865,3.8,19.473,33.236,45.246,1243.69,0.0,0.293, NaN, NaN, NaN,23.553,   NaN,17.61,1013.55,59.87,17.44,359.4,358.4,7.5,8.0,272.2,270.5,6.6,7.0,NaN, NaN,22.8,310.6,264.1,NaN,1099700355,1,2.3,001154,001155,272.1,30.180242,-122.924946,NaN,NaN,NaN,19.478, NaN,NaN,NaN, NaN, NaN
20041106,001945,287950,30.180290,-122.925216,3.7,19.474,33.236,45.247,1224.21,0.0,0.306, NaN, NaN, NaN,23.553,   NaN,17.59,1013.55,59.36,17.41,358.0,357.1,7.9,8.4,271.6,270.0,6.8,7.3,NaN, NaN,23.2,263.2,269.2,NaN,1099700385,1,2.1,001185,001185,274.2,30.180212,-122.925280,NaN,NaN,NaN,19.479, NaN,NaN,NaN, NaN, NaN
20041106,002015,287980,30.180273,-122.925518,3.8,19.475,33.236,45.248,1235.61,0.0,0.305, NaN, NaN, NaN,23.553,   NaN,17.62,1013.50,59.94,17.48,1.0,357.3,7.9,8.4,275.4,271.6,6.9,7.4,NaN, NaN,22.3,336.8,257.5,NaN,1099700415,1,2.0,001215,001215,273.5,30.180193,-122.925573,NaN,NaN,NaN,19.480, NaN,NaN,NaN, NaN, NaN
20041106,002045,288010,30.180255,-122.925790,3.8,19.473,33.237,45.248,1215.30,0.0,0.296, NaN, NaN, NaN,23.554,   NaN,17.59,1013.54,59.57,17.44,5.6,0.4,7.6,8.0,279.5,274.0,6.7,7.0,NaN, NaN,23.2,317.1,260.7,NaN,1099700445,1,1.8,001245,001245,270.1,30.180182,-122.925843,NaN,NaN,NaN,19.478, NaN,NaN,NaN, NaN, NaN
20041106,002115,288041,30.180230,-122.926045,3.8,19.473,33.237,45.248,1198.62,0.0,0.300, NaN, NaN, NaN,23.554,   NaN,17.61,1013.50,60.04,17.48,8.8,4.4,7.1,7.4,281.1,276.1,6.3,6.6,NaN, NaN,23.7,291.5,256.8,NaN,1099700475,1,1.6,001276,001275,268.9,30.180145,-122.926096,NaN,NaN,NaN,19.478, NaN,NaN,NaN, NaN, NaN
20041106,002146,288071,30.180192,-122.926265,3.8,19.472,33.237,45.247,1166.97,0.0,0.314, NaN, NaN, NaN,23.554,   NaN,17.66,1013.50,61.45,17.44,11.9,6.9,7.1,7.4,283.2,277.6,6.4,6.6,NaN, NaN,24.3,225.1,264.2,NaN,1099700505,1,1.6,001306,001305,269.3,30.180128,-122.926318,NaN,NaN,NaN,19.477, NaN,NaN,NaN, NaN, NaN
20041106,002216,288101,30.180125,-122.926450,3.8,19.474,33.237,45.248,1186.11,0.0,0.298, NaN, NaN, NaN,23.554,   NaN,17.66,1013.46,59.77,17.44,15.6,9.8,7.5,7.9,287.3,280.8,6.9,7.3,NaN, NaN,23.4,305.7,245.9,NaN,1099700535,1,1.5,001336,001335,267.9,30.180055,-122.926493,NaN,NaN,NaN,19.479, NaN,NaN,NaN, NaN, NaN
20041106,002246,288132,30.180075,-122.926616,3.8,19.474,33.237,45.248,1146.91,0.0,0.290, NaN, NaN, NaN,23.554,   NaN,17.63,1013.57,59.64,17.48,18.1,11.5,7.6,8.0,289.7,282.6,7.1,7.5,NaN, NaN,23.1,208.4,256.7,NaN,1099700565,1,1.3,001366,001365,269.1,30.180020,-122.926665,NaN,NaN,NaN,19.479, NaN,NaN,NaN, NaN, NaN
20041106,002315,288160,30.179992,-122.926755,3.8,19.475,33.237,45.249,1175.17,0.0,0.308, NaN, NaN, NaN,23.553,   NaN,17.59,1013.51,59.97,17.48,13.8,7.9,7.4,7.7,286.7,280.4,7.0,7.2,NaN, NaN,23.6,211.9,243.7,NaN,1099700595,1,1.3,001395,001395,270.7,30.179930,-122.926795,NaN,NaN,NaN,19.480, NaN,NaN,NaN, NaN, NaN
20041106,002345,288190,30.179962,-122.926886,3.8,19.473,33.237,45.247,1169.36,0.0,0.296, NaN, NaN, NaN,23.554,   NaN,17.60,1013.52,60.20,17.51,11.9,6.6,7.0,7.4,285.2,279.5,6.6,6.9,NaN, NaN,22.8,329.4,234.1,NaN,1099700625,1,1.1,001425,001425,270.6,30.179890,-122.926928,NaN,NaN,NaN,19.478, NaN,NaN,NaN, NaN, NaN
20041106,002415,288221,30.179893,-122.927006,3.8,19.471,33.237,45.245,1146.56,0.0,0.300, NaN, NaN, NaN,23.554,   NaN,17.59,1013.51,60.04,17.48,14.5,9.3,6.9,7.2,287.7,282.1,6.5,6.8,NaN, NaN,22.7,257.3,234.8,NaN,1099700655,1,1.1,001455,001455,270.2,30.179818,-122.927060,NaN,NaN,NaN,19.476, NaN,NaN,NaN, NaN, NaN
20041106,002446,288251,30.179813,-122.927141,3.8,19.472,33.236,45.245,1152.56,0.0,0.314, NaN, NaN, NaN,23.553,   NaN,17.60,1013.55,60.19,17.48,17.7,11.5,6.7,7.0,291.3,284.5,6.4,6.6,NaN, NaN,22.9,264.3,239.3,NaN,1099700685,1,1.3,001486,001485,270.2,30.179742,-122.927191,NaN,NaN,NaN,19.477, NaN,NaN,NaN, NaN, NaN
20041106,002516,288282,30.179720,-122.927281,3.8,19.472,33.235,45.245,1131.81,0.0,0.315, NaN, NaN, NaN,23.553,   NaN,17.68,1013.49,62.71,17.48,16.5,10.3,6.4,6.7,291.0,284.3,6.0,6.3,NaN, NaN,24.5,221.7,237.3,NaN,1099700715,1,1.3,001517,001515,270.8,30.179675,-122.927320,NaN,NaN,NaN,19.477, NaN,NaN,NaN, NaN, NaN
20041106,002546,288312,30.179690,-122.927391,3.7,19.471,33.236,45.244,1137.87,0.0,0.304, NaN, NaN, NaN,23.553,   NaN,17.68,1013.54,61.63,17.54,16.6,10.2,6.2,6.6,291.7,284.8,5.9,6.2,NaN, NaN,21.9,347.5,235.2,NaN,1099700745,1,1.3,001546,001545,273.1,30.179608,-122.927445,NaN,NaN,NaN,19.476, NaN,NaN,NaN, NaN, NaN
20041106,002617,288342,30.179600,-122.927540,3.8,19.473,33.236,45.246,1129.24,0.0,0.311, NaN, NaN, NaN,23.553,   NaN,17.67,1013.49,61.32,17.57,14.4,8.9,6.4,6.8,290.1,284.2,6.1,6.4,NaN, NaN,23.9,237.9,242.6,NaN,1099700775,1,1.1,001576,001575,271.1,30.179535,-122.927573,NaN,NaN,NaN,19.478, NaN,NaN,NaN, NaN, NaN
20041106,002646,288371,30.179547,-122.927693,3.8,19.474,33.236,45.247,1124.37,0.0,0.312, NaN, NaN, NaN,23.552,   NaN,17.69,1013.45,62.96,17.54,19.3,12.6,6.8,7.2,294.5,287.2,6.5,6.8,NaN, NaN,23.1,312.3,238.1,NaN,1099700805,1,1.1,001606,001605,270.6,30.179477,-122.927745,NaN,NaN,NaN,19.479, NaN,NaN,NaN, NaN, NaN
20041106,002717,288403,30.179467,-122.927843,3.8,19.474,33.236,45.247,1120.11,0.0,0.301, NaN, NaN, NaN,23.553,   NaN,17.66,1013.50,61.62,17.51,22.9,14.8,6.9,7.3,297.3,288.7,6.6,6.9,NaN, NaN,23.0,237.9,240.7,NaN,1099700835,1,1.2,001636,001635,271.2,30.179405,-122.927898,NaN,NaN,NaN,19.479, NaN,NaN,NaN, NaN, NaN
20041106,002746,288431,30.179420,-122.928010,3.8,19.470,33.236,45.243,1095.82,0.0,0.310, NaN, NaN, NaN,23.554,   NaN,17.70,1013.50,63.10,17.54,18.6,12.2,6.9,7.1,293.2,286.3,6.5,6.7,NaN, NaN,24.4,220.2,250.1,NaN,1099700865,1,1.2,001666,001665,272.2,30.179357,-122.928048,NaN,NaN,NaN,19.475, NaN,NaN,NaN, NaN, NaN
20041106,002817,288462,30.179377,-122.928176,3.8,19.471,33.235,45.243,1096.92,0.0,0.314, NaN, NaN, NaN,23.553,   NaN,17.66,1013.55,62.29,17.54,13.3,7.4,6.8,7.1,288.7,282.2,6.4,6.6,NaN, NaN,23.4,320.1,244.0,NaN,1099700895,1,1.4,001696,001695,272.6,30.179302,-122.928226,NaN,NaN,NaN,19.476, NaN,NaN,NaN, NaN, NaN
20041106,002846,288492,30.179322,-122.928353,3.8,19.469,33.235,45.242,1069.65,0.0,0.302, NaN, NaN, NaN,23.554,   NaN,17.64,1013.51,61.51,17.51,6.5,2.6,7.0,7.3,281.4,277.0,6.5,6.7,NaN, NaN,24.9,209.8,258.4,NaN,1099700925,1,1.2,001726,001725,271.6,30.179267,-122.928390,NaN,NaN,NaN,19.474, NaN,NaN,NaN, NaN, NaN
20041106,002916,288521,30.179293,-122.928541,3.8,19.466,33.236,45.240,1069.35,0.0,0.313, NaN, NaN, NaN,23.554,   NaN,17.61,1013.52,62.23,17.54,359.7,357.6,6.9,7.3,273.1,270.6,6.4,6.7,NaN, NaN,23.8,302.3,253.9,NaN,1099700955,1,1.3,001756,001755,272.2,30.179223,-122.928583,NaN,NaN,NaN,19.471, NaN,NaN,NaN, NaN, NaN
20041106,002947,288553,30.179258,-122.928741,3.8,19.470,33.235,45.243,1035.83,0.0,0.316, NaN, NaN, NaN,23.553,   NaN,17.66,1013.57,62.69,17.48,359.3,357.5,6.9,7.3,271.6,269.6,6.3,6.7,NaN, NaN,24.3,211.1,258.2,NaN,1099700985,1,1.5,001787,001785,268.1,30.179193,-122.928788,NaN,NaN,NaN,19.475, NaN,NaN,NaN, NaN, NaN
20041106,003016,288581,30.179197,-122.928936,3.8,19.472,33.235,45.244,573.22,0.0,0.305, NaN, NaN, NaN,23.553,   NaN,17.62,1013.56,62.55,17.54,355.8,354.1,6.9,7.4,266.4,264.4,6.3,6.7,NaN, NaN,24.8,263.2,257.0,NaN,1099701015,1,1.4,001816,001815,267.1,30.179125,-122.928993,NaN,NaN,NaN,19.477, NaN,NaN,NaN, NaN, NaN
20041106,003046,288611,30.179162,-122.929141,3.8,19.471,33.235,45.243,325.35,0.0,0.309, NaN, NaN, NaN,23.553,   NaN,17.52,1013.53,62.74,17.51,358.4,356.1,7.0,7.4,267.9,265.3,6.3,6.7,NaN, NaN,24.4,275.4,253.0,1099701039,1099701045,1,1.3,001846,001845,268.5,30.179080,-122.929200,NaN,NaN,NaN,19.476, NaN,NaN,NaN, NaN, NaN
20041106,003117,288642,30.179115,-122.929358,3.7,19.469,33.235,45.242,312.78,0.0,0.314, NaN, NaN, NaN,23.554,   NaN,17.47,1013.55,62.95,17.48,0.6,0.2,7.0,7.4,271.1,270.2,6.4,6.7,NaN, NaN,21.5,306.7,252.7,NaN,1099701075,1,1.5,001877,001875,269.9,30.179028,-122.929395,NaN,NaN,NaN,19.474, NaN,NaN,NaN, NaN, NaN
20041106,003147,288672,30.179060,-122.929546,3.8,19.469,33.235,45.242,339.85,0.0,0.295, NaN, NaN, NaN,23.554,   NaN,17.42,1013.56,62.75,17.48,358.1,358.1,7.1,7.5,270.2,269.7,6.5,6.8,NaN, NaN,21.0,265.7,249.7,NaN,1099701105,1,1.2,001907,001905,271.3,30.178977,-122.929578,NaN,NaN,NaN,19.474, NaN,NaN,NaN, NaN, NaN
20041106,003217,288703,30.179000,-122.929713,3.8,19.469,33.235,45.241,315.04,0.0,0.303, NaN, NaN, NaN,23.553,   NaN,17.39,1013.55,62.99,17.38,354.5,355.1,6.9,7.3,267.1,267.6,6.4,6.7,NaN, NaN,23.0,199.6,255.3,NaN,1099701135,1,1.5,001936,001935,271.4,30.178918,-122.929765,NaN,NaN,NaN,19.474, NaN,NaN,NaN, NaN, NaN
20041106,003247,288733,30.178965,-122.929888,3.8,19.472,33.239,45.249,307.92,0.0,0.320, NaN, NaN, NaN,23.556,   NaN,17.40,1013.55,62.82,17.35,356.7,354.8,6.7,7.0,269.9,268.0,6.2,6.5,NaN, NaN,21.0,247.2,247.8,NaN,1099701165,1,1.3,001967,001965,273.0,30.178878,-122.929930,NaN,NaN,NaN,19.477, NaN,NaN,NaN, NaN, NaN
20041106,003317,288762,30.178900,-122.930061,3.8,19.471,33.239,45.249,306.16,0.0,0.313, NaN, NaN, NaN,23.556,   NaN,17.38,1013.53,62.61,17.28,357.7,354.4,6.7,7.1,271.4,268.0,6.2,6.5,NaN, NaN,21.1,219.2,253.6,NaN,1099701195,1,1.1,001997,001995,271.8,30.178827,-122.930081,NaN,NaN,NaN,19.476, NaN,NaN,NaN, NaN, NaN
20041106,003347,288792,30.178823,-122.930208,3.8,19.471,33.240,45.249,292.34,0.0,0.305, NaN, NaN, NaN,23.556,   NaN,17.32,1013.47,62.11,17.28,359.3,356.9,6.7,7.1,274.4,271.6,6.2,6.5,NaN, NaN,22.2,204.7,261.8,NaN,1099701225,1,1.3,002027,002025,272.9,30.178772,-122.930231,NaN,NaN,NaN,19.476, NaN,NaN,NaN, NaN, NaN
20041106,003417,288822,30.178815,-122.930345,3.8,19.472,33.239,45.250,301.68,0.0,0.311, NaN, NaN, NaN,23.556,   NaN,17.33,1013.54,62.98,17.27,3.1,360.0,6.4,6.7,278.1,274.6,5.9,6.2,NaN, NaN,20.3,265.9,251.4,NaN,1099701255,1,1.2,002058,002055,271.8,30.178725,-122.930388,NaN,NaN,NaN,19.477, NaN,NaN,NaN, NaN, NaN
20041106,003447,288852,30.178722,-122.930495,3.8,19.472,33.240,45.250,863.61,0.0,0.309, NaN, NaN, NaN,23.556,   NaN,17.47,1013.49,65.13,17.32,4.5,359.5,6.1,6.4,279.7,274.3,5.7,5.9,NaN, NaN,23.0,11.0,238.0,NaN,1099701285,1,1.6,002087,002085,271.2,30.178647,-122.930526,NaN,NaN,NaN,19.477, NaN,NaN,NaN, NaN, NaN
20041106,003518,288883,30.178682,-122.930616,3.8,19.471,33.240,45.249,729.58,0.0,0.301, NaN, NaN, NaN,23.556,   NaN,17.51,1013.54,62.87,17.28,5.1,0.3,6.6,6.9,278.4,273.3,6.1,6.4,NaN, NaN,22.0,213.7,257.2,NaN,1099701315,1,1.2,002117,002115,269.9,30.178613,-122.930660,NaN,NaN,NaN,19.476, NaN,NaN,NaN, NaN, NaN
20041106,003548,288913,30.178638,-122.930766,3.8,19.473,33.240,45.251,370.50,0.0,0.314, NaN, NaN, NaN,23.556,   NaN,17.47,1013.50,62.15,17.27,8.1,0.7,7.3,7.6,280.9,273.1,6.9,7.2,NaN, NaN,20.4,265.0,248.2,NaN,1099701345,1,1.1,002148,002145,269.0,30.178555,-122.930805,NaN,NaN,NaN,19.478, NaN,NaN,NaN, NaN, NaN
20041106,003617,288942,30.178587,-122.930921,3.8,19.473,33.240,45.252,280.50,0.0,0.309, NaN, NaN, NaN,23.556,   NaN,17.47,1013.50,63.65,17.28,9.3,1.8,7.4,7.7,279.7,271.8,6.9,7.2,NaN, NaN,19.7,336.2,234.6,NaN,1099701375,1,1.4,002178,002175,263.4,30.178483,-122.930966,NaN,NaN,NaN,19.478, NaN,NaN,NaN, NaN, NaN
20041106,003647,288972,30.178482,-122.931110,3.8,19.473,33.240,45.252,260.97,0.0,0.304, NaN, NaN, NaN,23.556,   NaN,17.43,1013.54,61.64,17.27,11.5,5.0,7.3,7.7,279.0,272.1,6.8,7.1,NaN, NaN,21.2,199.0,242.3,NaN,1099701405,1,1.6,002207,002205,261.2,30.178408,-122.931141,NaN,NaN,NaN,19.478, NaN,NaN,NaN, NaN, NaN
20041106,003718,289003,30.178373,-122.931330,3.8,19.469,33.241,45.248,267.90,0.0,0.313, NaN, NaN, NaN,23.558,   NaN,17.41,1013.56,62.90,17.24,16.8,11.0,7.1,7.5,281.9,275.4,6.5,6.9,NaN, NaN,22.1,252.6,242.9,NaN,1099701435,1,1.8,002238,002235,258.3,30.178293,-122.931341,NaN,NaN,NaN,19.474, NaN,NaN,NaN, NaN, NaN
20041106,003747,289032,30.178273,-122.931568,3.8,19.467,33.239,45.245,260.56,0.0,0.310, NaN, NaN, NaN,23.557,   NaN,17.40,1013.50,62.85,17.27,24.5,17.2,7.0,7.3,288.2,279.9,6.3,6.6,NaN, NaN,20.4,247.9,236.8,NaN,1099701465,1,1.8,002267,002265,255.5,30.178173,-122.931581,NaN,NaN,NaN,19.472, NaN,NaN,NaN, NaN, NaN